Tracking 19792 objects as of 16-Jul-2019
HD Live streaming from Space Station
objects crossing your sky now

FENGYUN 1C DEB

Track FENGYUN 1C DEB now!
10-day predictions


NORAD ID: 31998
Int'l Code: 1999-025CQB
Perigee: 440.0 km
Apogee: 467.4 km
Inclination: 105.5 °
Period: 93.5 minutes
Semi major axis: 6824 km
RCS: 0.0125 m2 (small)
Launch date: May 10, 1999
Source: People's Republic of China (PRC)
Launch site: Taiyaun Space Center, China (TSC)

Note: This is SATELLITE DEBRIS
aabbcc
Your satellite tracking list
Your tracking list is empty




NASA's NSSDC Master Catalog

Two Line Element Set (TLE):
1 31998U 99025CQB 19195.90569108  .00035823  00000-0  89659-3 0  9999
2 31998 105.4904 179.6984 0020106 353.8370   6.2591 15.39852190648034
Source of the keplerian elements: AFSPC